Weather History for Panama City Tyndall AFB, FL

Change the Weather History Date:

Monday, January 7, 2013

  Actual Average Record
Temperature  
Mean Temperature 52 °F -  
Max Temperature 58 °F 60 °F 75 °F (2005)
Min Temperature 45 °F 42 °F 20 °F (2014)
Degree Days  
Heating Degree Days 14    
Growing Degree Days 2 (Base 50)    
Moisture  
Dew Point 43 °F    
Average Humidity 71    
Maximum Humidity 85    
Minimum Humidity 56    
Precipitation  
Precipitation 0.00 in - - ()
Sea Level Pressure  
Sea Level Pressure 30.25 in    
Wind  
Wind Speed 8 mph (ENE)    
Max Wind Speed 12 mph    
Max Gust Speed 20 mph    
Visibility 10 miles    
Events      
Averages and records for this station are not official NWS values.
T = Trace of Precipitation, MM = Missing Value Source: NWS Daily Summary

Daily Weather History Graph

Daily Weather History Graph

Search for Another Location

Airport:

Trip Planner

Search our weather history database for the weather conditions in past years. The results will help you decide how hot, cold, wet, or windy it might be!

Date:

Astronomy

Jan. 07, 2013 Rise Set
Actual Time 6:39 AM CST 4:58 PM CST
Civil Twilight 6:13 AM CST 5:24 PM CST
Nautical Twilight 5:43 AM CST 5:54 PM CST
Astronomical Twilight 5:14 AM CST 6:23 PM CST
Moon 2:07 AM CST (1/7) 1:05 PM CST (1/7)
Length of Visible Light 11h 11m
Length of Day
10h 18m
Waning Crescent, 22% of the Moon is Illuminated
Jan 7
Waning Crescent
Jan 11
New
Jan 18
First Quarter
Jan 26
Full
Feb 3
Last Quarter

Hourly Weather History & Observations

Time (CST) Temp. Windchill Dew Point Humidity Pressure Visibility Wind Dir Wind Speed Gust Speed Precip Events Conditions
12:55 AM 48.7 °F - 44.4 °F 85% 30.25 in 10.0 mi Variable 6.9 mph - N/A   Partly Cloudy
1:55 AM 48.2 °F - 43.7 °F 84% 30.25 in 10.0 mi NNE 9.2 mph - N/A   Clear
2:55 AM 47.7 °F - 41.9 °F 80% 30.24 in 10.0 mi NE 9.2 mph 17.3 mph N/A   Mostly Cloudy
3:55 AM 46.8 °F - 41.0 °F 80% 30.23 in 10.0 mi NE 11.5 mph 18.4 mph N/A   Scattered Clouds
4:55 AM 46.0 °F 41.0 °F 40.3 °F 80% 30.25 in 10.0 mi NE 10.4 mph 17.3 mph N/A   Mostly Cloudy
5:55 AM 45.7 °F 41.5 °F 40.5 °F 82% 30.25 in 10.0 mi NE 8.1 mph - N/A   Overcast
6:55 AM 45.3 °F 41.6 °F 40.3 °F 83% 30.27 in 10.0 mi Variable 6.9 mph - N/A   Mostly Cloudy
7:55 AM 46.4 °F 43.5 °F 40.5 °F 80% 30.30 in 10.0 mi NE 5.8 mph - N/A   Mostly Cloudy
8:55 AM 48.0 °F - 40.3 °F 75% 30.32 in 10.0 mi Variable 6.9 mph - N/A   Overcast
9:55 AM 51.3 °F - 40.3 °F 66% 30.30 in 10.0 mi ENE 11.5 mph 19.6 mph N/A   Partly Cloudy
10:55 AM 55.6 °F - 41.2 °F 58% 30.28 in 10.0 mi East 11.5 mph - N/A   Scattered Clouds
11:55 AM 58.1 °F - 42.6 °F 56% 30.26 in 10.0 mi NE 8.1 mph - N/A   Mostly Cloudy
12:55 PM 57.9 °F - 43.0 °F 58% 30.24 in 10.0 mi East 6.9 mph - N/A   Mostly Cloudy
1:55 PM 58.5 °F - 43.3 °F 57% 30.22 in 10.0 mi ENE 8.1 mph - N/A   Overcast
2:55 PM 58.6 °F - 44.2 °F 59% 30.24 in 10.0 mi NE 4.6 mph - N/A   Overcast
3:55 PM 58.3 °F - 43.7 °F 58% 30.24 in 10.0 mi ENE 4.6 mph - N/A   Overcast
4:55 PM 56.1 °F - 42.8 °F 61% 30.24 in 10.0 mi NE 5.8 mph - N/A   Overcast
5:55 PM 55.0 °F - 45.0 °F 69% 30.25 in 10.0 mi ENE 3.5 mph - N/A   Overcast
6:55 PM 54.7 °F - 43.3 °F 66% 30.26 in 10.0 mi ENE 5.8 mph - N/A   Overcast
7:55 PM 54.0 °F - 43.7 °F 68% 30.26 in 10.0 mi ENE 8.1 mph - N/A   Overcast
8:55 PM 52.9 °F - 43.7 °F 71% 30.25 in 10.0 mi ENE 8.1 mph - N/A   Mostly Cloudy
9:55 PM 52.0 °F - 45.1 °F 77% 30.24 in 10.0 mi ENE 9.2 mph - N/A   Scattered Clouds
10:55 PM 52.0 °F - 46.2 °F 81% 30.23 in 10.0 mi East 5.8 mph - N/A   Mostly Cloudy
11:55 PM 52.0 °F - 46.8 °F 82% 30.21 in 10.0 mi ENE 9.2 mph - N/A   Overcast